FW9562 Weather Reports


time (UTC)temp
C
wind
direction
speed
KPH
gust
KPH
rain 1hr
cm
rain 24hr
cm
rain mn
cm
humidity
%
barometer
mb
20260906105804 21 45 6.4 8.0 0.00 0.00 0.00 99 1012.6
20260906105259 21 62 3.2 8.0 0.00 0.00 0.00 99 1012.5
20260906104755 21 49 4.8 4.8 0.00 0.00 0.00 99 1012.3
20260906104254 21 21 12.9 16.1 0.00 0.00 0.00 99 1012.5
20260906103752 21 46 6.4 8.0 0.00 0.00 0.00 99 1012.3
20260906103252 21 23 6.4 11.3 0.00 0.00 0.00 99 1012.3
20260906102748 21 76 3.2 8.0 0.00 0.00 0.00 99 1012.3
20260906102246 21 29 6.4 6.4 0.00 0.00 0.00 99 1012.5
20260906101742 21 35 4.8 4.8 0.00 0.00 0.00 99 1012.2
20260906101236 21 21 4.8 9.7 0.00 0.00 0.00 99 1012.5
20260906100732 21 25 4.8 8.0 0.00 0.00 0.00 99 1012.1
20260906100231 21 68 3.2 3.2 0.00 0.00 0.00 99 1012.1
20260906095727 21 63 3.2 4.8 0.00 0.00 0.00 99 1012.2
20260906095222 21 52 3.2 4.8 0.00 0.00 0.00 99 1012.0
20260906094721 21 69 3.2 3.2 0.00 0.00 0.00 99 1012.2
20260906094216 20 60 3.2 4.8 0.00 0.00 0.00 99 1011.9
20260906093713 20 60 3.2 4.8 0.00 0.00 0.00 99 1012.0
20260906093208 21 46 3.2 6.4 0.00 0.00 0.00 99 1011.8
20260906092703 21 46 4.8 4.8 0.00 0.00 0.00 99 1011.8
20260906092202 20 42 4.8 4.8 0.00 0.00 0.00 99 1011.7
20260906091658 21 55 3.2 4.8 0.00 0.00 0.00 99 1011.6
20260906091155 21 30 4.8 4.8 0.00 0.00 0.00 99 1011.5
20260906090651 20 29 4.8 6.4 0.00 0.00 0.00 99 1011.4
20260906090150 20 38 3.2 4.8 0.00 0.00 0.00 99 1011.7
20260906085649 20 45 4.8 6.4 0.00 0.00 0.00 99 1011.5
20260906085148 20 22 4.8 4.8 0.00 0.00 0.00 99 1011.5
20260906084643 20 71 3.2 4.8 0.00 0.00 0.00 99 1011.6
20260906084143 20 47 4.8 6.4 0.00 0.00 0.00 99 1011.6
20260906083638 20 36 6.4 6.4 0.00 0.00 0.00 99 1011.5
20260906083133 20 60 3.2 6.4 0.00 0.00 0.00 99 1011.4
20260906082628 20 14 4.8 8.0 0.00 0.00 0.00 99 1011.3
20260906082124 20 40 4.8 8.0 0.00 0.00 0.00 99 1011.2
20260906081620 20 12 8.0 9.7 0.00 0.00 0.00 99 1011.3
20260906081115 20 14 4.8 6.4 0.00 0.00 0.00 99 1010.9
20260906080611 20 63 1.6 3.2 0.00 0.00 0.00 99 1010.9
20260906080107 20 33 3.2 3.2 0.00 0.00 0.00 99 1010.9
20260906075601 20 39 3.2 3.2 0.00 0.00 0.00 99 1011.0
20260906075055 20 42 1.6 1.6 0.00 0.00 0.00 99 1011.0
20260906074551 20 30 0.0 1.6 0.00 0.00 0.00 99 1010.8
20260906074049 20 31 0.0 1.6 0.00 0.00 0.00 99 1011.1
20260906073544 20 70 0.0 1.6 0.00 0.00 0.00 99 1010.9
20260906073040 20 55 0.0 0.0 0.00 0.00 0.00 99 1010.9
20260906072535 20 34 0.0 1.6 0.00 0.00 0.00 99 1010.9
20260906072031 20 41 3.2 3.2 0.00 0.00 0.00 99 1011.1
20260906071527 20 32 3.2 4.8 0.00 0.00 0.00 99 1011.0
20260906071022 20 36 3.2 4.8 0.00 0.00 0.00 99 1010.9
20260906070518 20 61 1.6 4.8 0.00 0.00 0.00 99 1011.0
20260906070014 20 19 3.2 6.4 0.00 0.00 0.00 99 1011.0
20260906065513 20 22 3.2 4.8 0.00 0.00 0.00 99 1011.1
20260906065009 20 60 3.2 3.2 0.00 0.00 0.00 99 1011.1
20260906064505 20 43 1.6 3.2 0.00 0.00 0.00 99 1011.2
20260906064000 20 41 3.2 3.2 0.00 0.00 0.00 99 1011.2
20260906063455 20 39 1.6 3.2 0.00 0.00 0.00 99 1011.4
20260906062949 20 59 1.6 3.2 0.00 0.00 0.00 99 1011.2
20260906062444 20 49 0.0 0.0 0.00 0.00 0.00 99 1011.4
20260906061939 20 347 0.0 1.6 0.00 0.00 0.00 99 1011.3
20260906061435 20 40 0.0 1.6 0.00 0.00 0.00 99 1011.2
20260906060930 20 30 0.0 1.6 0.00 0.00 0.00 99 1011.0
20260906060427 20 55 3.2 3.2 0.00 0.00 0.00 99 1011.3
20260906055923 20 72 1.6 3.2 0.00 0.00 0.00 99 1011.2
20260906055419 20 58 1.6 3.2 0.00 0.00 0.00 99 1011.3
20260906054914 20 36 3.2 4.8 0.00 0.00 0.00 99 1011.4
20260906054408 20 60 1.6 3.2 0.00 0.00 0.00 99 1011.5
20260906053905 20 53 3.2 3.2 0.00 0.00 0.00 99 1011.6
20260906053400 20 46 3.2 3.2 0.00 0.00 0.00 99 1011.6
20260906052856 20 51 3.2 4.8 0.00 0.00 0.00 99 1011.8
20260906052352 20 46 3.2 3.2 0.00 0.00 0.00 99 1011.7
20260906051849 20 56 1.6 3.2 0.00 0.00 0.00 99 1011.7
20260906051348 20 78 0.0 1.6 0.00 0.00 0.00 99 1012.0
20260906050844 20 343 0.0 1.6 0.00 0.00 0.00 99 1012.1
20260906050339 20 44 0.0 1.6 0.00 0.00 0.00 99 1012.1
20260906045838 20 35 0.0 0.0 0.00 0.00 0.00 99 1012.1
20260906045332 20 50 0.0 1.6 0.00 0.00 0.00 99 1012.0
20260906044828 20 32 1.6 3.2 0.00 0.00 0.00 99 1012.3
20260906044323 20 44 3.2 3.2 0.00 0.00 0.00 99 1012.3
20260906043819 20 52 1.6 3.2 0.00 0.00 0.00 99 1012.0
20260906043315 20 352 0.0 1.6 0.00 0.00 0.00 99 1012.2
20260906042814 20 32 0.0 1.6 0.00 0.00 0.00 99 1012.3
20260906042314 20 22 0.0 1.6 0.00 0.00 0.00 99 1012.5
20260906041809 20 40 1.6 3.2 0.00 0.00 0.00 99 1012.6
20260906041304 20 8 0.0 1.6 0.00 0.00 0.00 99 1012.5
20260906040759 20 22 0.0 0.0 0.00 0.00 0.00 99 1012.3
20260906040255 20 37 0.0 0.0 0.00 0.61 0.61 99 1012.4
20260906035750 20 44 0.0 1.6 0.00 0.61 0.61 99 1012.4
20260906035246 20 321 0.0 0.0 0.00 0.61 0.61 99 1012.4
20260906034746 20 50 0.0 1.6 0.00 0.61 0.61 99 1012.4
20260906034241 20 60 0.0 3.2 0.00 0.61 0.61 99 1012.7
20260906033737 20 50 0.0 1.6 0.00 0.61 0.61 99 1012.6
20260906033236 20 67 1.6 3.2 0.00 0.61 0.61 99 1012.4
20260906032733 20 44 1.6 1.6 0.00 0.61 0.61 99 1012.4
20260906032232 20 51 0.0 1.6 0.00 0.61 0.61 99 1012.4
20260906031728 20 50 0.0 0.0 0.00 0.61 0.61 99 1012.3
20260906031224 20 37 0.0 1.6 0.00 0.61 0.61 99 1012.2
20260906030723 20 73 0.0 3.2 0.00 0.61 0.61 99 1012.1
20260906030218 20 86 1.6 3.2 0.00 0.61 0.61 99 1012.2
20260906025717 20 50 0.0 0.0 0.00 0.61 0.61 99 1012.4
20260906025212 20 46 1.6 3.2 0.00 0.61 0.61 99 1012.1
20260906024711 20 354 0.0 1.6 0.00 0.61 0.61 99 1012.2
20260906024210 20 352 0.0 1.6 0.00 0.61 0.61 99 1012.4
20260906023706 20 46 0.0 1.6 0.00 0.61 0.61 99 1012.0
20260906023201 20 339 0.0 0.0 0.00 0.61 0.61 99 1012.2
20260906022656 20 315 0.0 1.6 0.00 0.61 0.61 99 1012.0
20260906022152 20 304 0.0 0.0 0.00 0.61 0.61 99 1012.1
20260906021647 20 55 0.0 0.0 0.00 0.61 0.61 99 1012.2
20260906021146 20 53 0.0 1.6 0.00 0.61 0.61 99 1011.9
20260906020641 20 54 1.6 1.6 0.00 0.61 0.61 99 1011.9
20260906020136 20 37 0.0 0.0 0.00 0.61 0.61 99 1012.0
20260906015630 21 37 3.2 3.2 0.00 0.61 0.61 99 1012.0
20260906015128 21 20 1.6 3.2 0.00 0.61 0.61 99 1011.9
20260906014623 21 298 3.2 3.2 0.00 0.61 0.61 99 1011.6
20260906014119 21 44 3.2 4.8 0.00 0.61 0.61 99 1011.9
20260906013614 21 50 1.6 3.2 0.00 0.61 0.61 99 1011.8
20260906013110 21 54 3.2 3.2 0.00 0.61 0.61 99 1012.0
20260906012604 21 89 3.2 4.8 0.00 0.61 0.61 99 1011.8
20260906012059 20 85 3.2 4.8 0.00 0.61 0.61 99 1012.1
20260906011555 20 93 3.2 3.2 0.00 0.61 0.61 99 1012.1
20260906011055 20 81 3.2 3.2 0.00 0.61 0.61 99 1011.6
20260906010550 21 62 1.6 3.2 0.00 0.61 0.61 99 1011.8
20260906010047 21 46 1.6 1.6 0.00 0.61 0.61 99 1011.6
20260906005546 21 17 0.0 1.6 0.00 0.61 0.61 99 1011.5
20260906005045 21 37 0.0 1.6 0.00 0.61 0.61 99 1011.5
20260906004545 20 81 1.6 3.2 0.00 0.61 0.61 99 1011.4
20260906004039 20 71 1.6 3.2 0.00 0.61 0.61 99 1011.3
20260906003534 21 68 3.2 3.2 0.00 0.61 0.61 99 1011.3
20260906003031 21 58 1.6 3.2 0.00 0.61 0.61 99 1011.3
20260906002525 21 66 0.0 1.6 0.00 0.61 0.61 99 1011.2
20260906002020 21 66 0.0 1.6 0.00 0.61 0.61 99 1010.9
20260906001515 21 32 0.0 3.2 0.00 0.61 0.61 99 1011.1
20260906001009 21 81 3.2 3.2 0.00 0.61 0.61 99 1011.1
20260906000506 21 45 1.6 1.6 0.00 0.61 0.61 99 1010.8
20260906000000 21 113 0.0 0.0 0.00 0.61 0.61 99 1010.9
20260905235500 21 42 0.0 3.2 0.00 0.61 0.61 99 1010.9
20260905234955 21 53 3.2 3.2 0.00 0.61 0.61 99 1011.0
20260905234450 21 69 1.6 3.2 0.00 0.61 0.61 99 1010.8
20260905233944 21 71 1.6 3.2 0.00 0.61 0.61 99 1010.9
20260905233440 21 86 0.0 1.6 0.00 0.61 0.61 99 1010.9
20260905232938 21 84 1.6 3.2 0.00 0.61 0.61 99 1010.7
20260905232435 21 79 1.6 1.6 0.00 0.61 0.61 99 1010.2
20260905231930 21 327 0.0 1.6 0.00 0.61 0.61 99 1010.6
20260905231426 21 66 0.0 0.0 0.00 0.61 0.61 99 1010.5
20260905230922 21 69 1.6 1.6 0.00 0.61 0.61 99 1010.3
20260905230421 21 50 0.0 0.0 0.00 0.61 0.61 99 1010.4
20260905225919 22 56 0.0 1.6 0.00 0.61 0.61 99 1010.1
20260905225414 21 173 0.0 0.0 0.00 0.61 0.61 99 1010.2
20260905224909 21 50 0.0 0.0 0.00 0.61 0.61 99 1010.1
20260905224405 22 50 0.0 1.6 0.00 0.61 0.61 99 1010.1
20260905223900 22 62 0.0 1.6 0.00 0.61 0.61 99 1010.2
20260905223358 22 80 0.0 3.2 0.00 0.61 0.61 99 1010.0
20260905222857 22 37 0.0 3.2 0.00 0.61 0.61 99 1009.8
20260905222356 22 53 0.0 0.0 0.00 0.61 0.61 99 1010.0
20260905221853 22 62 0.0 1.6 0.00 0.61 0.61 99 1010.4
20260905221349 22 325 0.0 1.6 0.00 0.61 0.61 99 1010.5
20260905220844 22 326 0.0 3.2 0.00 0.61 0.61 99 1010.7
20260905220341 21 291 1.6 4.8 0.00 0.61 0.61 99 1010.5
20260905215840 22 323 3.2 3.2 0.00 0.61 0.61 99 1011.1
20260905215336 22 50 0.0 1.6 0.00 0.61 0.61 99 1011.0
20260905214832 21 20 1.6 3.2 0.00 0.61 0.61 99 1011.2
20260905214327 21 32 0.0 3.2 0.00 0.61 0.61 99 1011.3
20260905213822 21 322 0.0 0.0 0.00 0.61 0.61 99 1011.0
20260905213318 21 61 0.0 3.2 0.00 0.61 0.61 99 1011.0
20260905212813 21 53 3.2 3.2 0.00 0.61 0.61 99 1010.8
20260905212312 21 60 0.0 3.2 0.00 0.61 0.61 99 1010.7
20260905211807 21 32 0.0 4.8 0.00 0.61 0.61 99 1010.9
20260905211302 21 32 0.0 4.8 0.00 0.61 0.61 99 1010.9
20260905210759 21 44 0.0 1.6 0.05 0.61 0.61 99 1010.7
20260905210258 21 54 1.6 3.2 0.05 0.61 0.61 99 1010.6
20260905205757 21 77 3.2 6.4 0.00 0.58 0.58 99 1010.5
20260905205252 21 60 1.6 3.2 0.05 0.58 0.58 99 1010.3
20260905204751 21 60 1.6 3.2 0.05 0.58 0.58 99 1010.3
20260905204248 21 54 0.0 1.6 0.05 0.58 0.58 99 1010.4
20260905203746 21 37 0.0 3.2 0.05 0.56 0.56 99 1010.4
20260905203242 21 15 3.2 4.8 0.05 0.56 0.56 99 1010.1
20260905202738 21 44 0.0 1.6 0.05 0.56 0.56 99 1009.9
20260905202232 21 315 0.0 3.2 0.05 0.56 0.56 99 1010.1
20260905201532 21 19 4.8 6.4 1.19 0.56 0.56 95 1010.3
20260905201031 21 19 4.8 6.4 1.19 0.56 0.56 95 1010.3
20260905200527 22 65 0.0 6.4 2.34 0.56 0.56 94 1010.0
20260905200026 24 311 6.4 14.5 0.97 0.15 0.15 84 1011.6
20260905195520 24 311 6.4 14.5 0.97 0.15 0.15 84 1011.6
20260905195015 29 301 8.0 12.9 0.00 0.00 0.00 69 1011.1
20260905194510 31 26 6.4 25.7 0.00 0.00 0.00 67 1010.5
20260905194009 31 7 0.0 0.0 0.00 0.00 0.00 69 1010.6
20260905193504 32 348 3.2 3.2 0.00 0.00 0.00 69 1010.4
20260905192959 32 334 0.0 3.2 0.00 0.00 0.00 65 1010.0
20260905192454 32 231 3.2 4.8 0.00 0.00 0.00 60 1010.0
20260905191950 33 297 4.8 4.8 0.00 0.00 0.00 61 1010.4
20260905191444 33 307 1.6 3.2 0.00 0.00 0.00 58 1010.3
20260905190943 33 287 3.2 4.8 0.00 0.00 0.00 61 1010.1
20260905190441 33 286 1.6 3.2 0.00 0.00 0.00 62 1009.7
20260905185940 34 312 3.2 6.4 0.00 0.00 0.00 57 1009.8
20260905185435 34 284 0.0 3.2 0.00 0.00 0.00 60 1009.5
20260905184934 35 262 3.2 4.8 0.00 0.00 0.00 56 1009.8
20260905184429 35 28 1.6 4.8 0.00 0.00 0.00 58 1010.1
20260905183928 35 22 6.4 14.5 0.00 0.00 0.00 54 1010.3
20260905183422 35 9 0.0 4.8 0.00 0.00 0.00 59 1010.3
20260905182918 35 11 4.8 9.7 0.00 0.00 0.00 55 1010.2
20260905182416 34 5 6.4 6.4 0.00 0.00 0.00 58 1010.6
20260905181912 34 339 0.0 4.8 0.00 0.00 0.00 58 1010.7
20260905181412 34 282 0.0 6.4 0.00 0.00 0.00 61 1010.9
20260905180912 34 226 3.2 3.2 0.00 0.00 0.00 58 1010.9
20260905180406 35 264 1.6 4.8 0.00 0.00 0.00 57 1011.1
20260905175901 35 219 3.2 6.4 0.00 0.00 0.00 56 1011.1
20260905175401 34 191 0.0 1.6 0.00 0.00 0.00 59 1011.0
20260905174856 34 229 0.0 1.6 0.00 0.00 0.00 60 1011.1
20260905174352 34 251 3.2 6.4 0.00 0.00 0.00 59 1011.4
20260905173847 35 306 1.6 8.0 0.00 0.00 0.00 54 1011.4
20260905173343 35 115 1.6 4.8 0.00 0.00 0.00 60 1011.4
20260905172838 35 298 3.2 8.0 0.00 0.00 0.00 57 1011.8
20260905172336 35 236 4.8 6.4 0.00 0.00 0.00 61 1011.8
20260905171832 34 99 3.2 4.8 0.00 0.00 0.00 57 1012.0
20260905171329 35 292 3.2 4.8 0.00 0.00 0.00 58 1012.1
20260905170825 34 212 0.0 4.8 0.00 0.00 0.00 61 1011.9
20260905170320 34 231 1.6 6.4 0.00 0.00 0.00 59 1012.1
20260905165819 33 212 6.4 9.7 0.00 0.00 0.00 58 1012.3
20260905165315 33 219 1.6 4.8 0.00 0.00 0.00 58 1012.1
20260905164815 33 222 1.6 6.4 0.00 0.00 0.00 59 1012.4
20260905164310 33 284 3.2 8.0 0.00 0.00 0.00 59 1012.3
20260905163805 33 290 6.4 8.0 0.00 0.00 0.00 60 1012.4
20260905163301 33 245 0.0 8.0 0.00 0.00 0.00 59 1012.5
20260905162757 33 209 3.2 4.8 0.00 0.00 0.00 60 1012.5
20260905162257 33 306 1.6 6.4 0.00 0.00 0.00 60 1012.4
20260905161751 33 295 3.2 4.8 0.00 0.00 0.00 60 1012.6
20260905161250 33 298 0.0 4.8 0.00 0.00 0.00 59 1012.5
20260905160749 33 254 1.6 3.2 0.00 0.00 0.00 62 1012.5
20260905160243 33 349 3.2 9.7 0.00 0.00 0.00 62 1012.6
20260905155738 33 253 4.8 4.8 0.00 0.00 0.00 65 1013.0
20260905155237 33 267 1.6 3.2 0.00 0.00 0.00 63 1012.7
20260905154731 33 224 0.0 3.2 0.00 0.00 0.00 65 1012.8
20260905154227 32 214 1.6 3.2 0.00 0.00 0.00 66 1012.9
20260905153722 33 225 1.6 3.2 0.00 0.00 0.00 66 1013.1
20260905153219 33 268 3.2 4.8 0.00 0.00 0.00 63 1013.2
20260905152713 32 289 3.2 4.8 0.00 0.00 0.00 63 1013.1
20260905152207 32 264 0.0 3.2 0.00 0.00 0.00 66 1013.0
20260905151707 32 300 3.2 4.8 0.00 0.00 0.00 64 1013.0
20260905151203 32 214 1.6 4.8 0.00 0.00 0.00 61 1013.0
20260905150658 32 327 3.2 4.8 0.00 0.00 0.00 63 1013.1
20260905150156 31 348 3.2 3.2 0.00 0.00 0.00 66 1013.3
20260905145654 31 303 4.8 6.4 0.00 0.00 0.00 65 1013.4
20260905145149 31 263 0.0 3.2 0.00 0.00 0.00 69 1013.3
20260905144643 31 266 1.6 4.8 0.00 0.00 0.00 67 1013.6
20260905144143 30 229 3.2 4.8 0.00 0.00 0.00 66 1013.0
20260905143637 30 214 1.6 6.4 0.00 0.00 0.00 67 1013.4
20260905143132 30 293 3.2 6.4 0.00 0.00 0.00 65 1013.1
20260905142630 30 302 3.2 3.2 0.00 0.00 0.00 68 1013.1
20260905142131 30 291 3.2 4.8 0.00 0.00 0.00 71 1013.1
20260905141630 30 298 3.2 6.4 0.00 0.00 0.00 68 1013.1
20260905141127 30 260 3.2 4.8 0.00 0.00 0.00 71 1013.0
20260905140622 30 247 3.2 4.8 0.00 0.00 0.00 71 1013.1
20260905140121 30 344 0.0 4.8 0.00 0.00 0.00 72 1013.2
20260905135616 29 7 0.0 4.8 0.00 0.00 0.00 72 1013.0
20260905135112 29 265 4.8 4.8 0.00 0.00 0.00 76 1012.9
20260905134607 28 274 1.6 8.0 0.00 0.00 0.00 74 1013.2
20260905134105 28 280 4.8 4.8 0.00 0.00 0.00 79 1013.1
20260905133601 28 266 3.2 3.2 0.00 0.00 0.00 80 1013.0
20260905133101 28 218 1.6 4.8 0.00 0.00 0.00 78 1013.2
20260905132600 28 245 1.6 4.8 0.00 0.00 0.00 80 1013.0
20260905132055 27 227 3.2 4.8 0.00 0.00 0.00 81 1013.2
20260905131550 27 256 1.6 4.8 0.00 0.00 0.00 83 1013.3
20260905131046 27 269 1.6 4.8 0.00 0.00 0.00 84 1013.1
20260905130545 27 255 1.6 4.8 0.00 0.00 0.00 84 1013.4
20260905130040 27 241 1.6 3.2 0.00 0.00 0.00 85 1013.4
20260905125539 26 202 0.0 3.2 0.00 0.00 0.00 84 1013.2
20260905125035 26 202 0.0 4.8 0.00 0.00 0.00 85 1013.3
20260905124532 26 296 0.0 1.6 0.00 0.00 0.00 86 1013.5
20260905124027 26 269 0.0 3.2 0.00 0.00 0.00 87 1013.2
20260905123523 26 205 0.0 1.6 0.00 0.00 0.00 87 1013.6
20260905123019 26 142 0.0 0.0 0.00 0.00 0.00 89 1013.2
20260905122513 25 186 0.0 1.6 0.00 0.00 0.00 89 1013.1
20260905122009 25 140 1.6 3.2 0.00 0.00 0.00 89 1013.2
20260905121509 25 164 0.0 1.6 0.00 0.00 0.00 90 1013.3
20260905121003 25 256 0.0 0.0 0.00 0.00 0.00 91 1013.2
20260905120457 25 311 0.0 1.6 0.00 0.00 0.00 93 1013.1
20260905115952 24 323 1.6 1.6 0.00 0.00 0.00 94 1013.1
20260905115451 24 303 3.2 3.2 0.00 0.00 0.00 95 1013.0
20260905114946 24 322 0.0 3.2 0.00 0.00 0.00 95 1013.1
20260905114446 23 0 0.0 1.6 0.00 0.00 0.00 96 1012.9
20260905113944 23 297 0.0 1.6 0.00 0.00 0.00 97 1013.0
20260905113440 23 321 0.0 0.0 0.00 0.00 0.00 98 1012.9
20260905112935 23 124 0.0 1.6 0.00 0.00 0.00 99 1012.9
20260905112431 22 55 0.0 3.2 0.00 0.00 0.00 99 1012.8
20260905111925 22 319 1.6 3.2 0.00 0.00 0.00 99 1012.6
20260905111420 22 66 0.0 1.6 0.00 0.00 0.00 99 1012.6
20260905110914 22 124 0.0 1.6 0.00 0.00 0.00 99 1012.8
20260905110408 22 47 0.0 1.6 0.00 0.00 0.00 99 1012.6